Regional Weather Roundup
Issued by NWS Upton, NY

Current Version | Previous Version | Graphics & Text | Print | Product List | Glossary On
Versions: 1 2 3 4 5 6 7 8 9 10 11 12 13 14 15 16 17 18 19 20 21 22 23 24 25 26 27 28 29 30 31 32 33 34 35 36 37 38 39 40 41 42 43 44 45 46 47 48 49 50
000
ASUS41 KOKX 271908
RWROKX

REGIONAL WEATHER ROUNDUP
NATIONAL WEATHER SERVICE NEW YORK NY
200 PM EST MON FEB 27 2017

NOTE: "FAIR" INDICATES FEW OR NO CLOUDS BELOW 12,000 FEET WITH NO
SIGNIFICANT WEATHER AND/OR OBSTRUCTIONS TO VISIBILITY.

NYZ071-072-176-178-NJZ106-104-272000-
NEW YORK CITY METRO AREA

CITY           SKY/WX    TMP DP  RH WIND       PRES   REMARKS
Central Park   MOSUNNY   52  21  29 VRB7      30.38F
Wall St Helipt NOT AVBL
LaGuardia APRT CLOUDY    54  20  26 SW12      30.36F
Kennedy INTL   CLOUDY    48  38  68 S13       30.39F
Breezy Point     N/A     45 N/A N/A S14G20      N/A
Newark/Liberty CLOUDY    54  18  24 SW16      30.36F
Teterboro      MOSUNNY   53  22  29 SW13G22   30.35F
$$

NYZ177-179-078>081-272000-
LONG ISLAND NEW YORK

CITY           SKY/WX    TMP DP  RH WIND       PRES   REMARKS
Jones Beach      N/A     45 N/A N/A S14G25      N/A
Matinecock PT  NOT AVBL
Farmingdale    MOSUNNY   49  32  52 SW14G21   30.39F
MacArthur/ISP  CLOUDY    48  32  53 SW17      30.38F
Shirley        SUNNY     46  33  60 SW10G21   30.40F
Westhampton    SUNNY     46  31  55 SW15G25   30.40F
Southampton      N/A     45  37  76 SW15      30.37S
Bridgehampton  NOT AVBL
East Hampton     N/A     46  32  57 SW14G24   30.38S
Montauk          N/A     47  32  56 SW10G22   30.39F
$$

NYZ052-065-067-272000-
HUDSON VALLEY

CITY           SKY/WX    TMP DP  RH WIND       PRES   REMARKS
White Plains   MOSUNNY   51  19  28 SW10G20   30.33F
Newburgh       SUNNY     50  19  29 W17G29    30.33F
Montgomery     MOSUNNY   51  24  34 SW17      30.29F
Poughkeepsie   CLOUDY    52  18  26 SW8G17    30.30F
Albany         PTSUNNY   53  22  29 W17G23    30.27S
$$

NJZ001-105-106-008-010-013-015-019>022-104-272000-
NEW JERSEY

CITY           SKY/WX    TMP DP  RH WIND       PRES   REMARKS
Newark/Liberty CLOUDY    54  18  24 SW16      30.36F
Teterboro      MOSUNNY   53  22  29 SW13G22   30.35F
Caldwell       CLOUDY    52  20  28 W8G17     30.36F
Somerville     CLOUDY    54  22  28 VRB5      30.34F
Linden         NOT AVBL
Sussex         MOSUNNY   50  24  36 SW7G18    30.33F
Andover          N/A     48  22  35 MISG      30.34F
Trenton        CLOUDY    52  24  33 SW9       30.36F
Millville      MOSUNNY   53  35  50 S7        30.39F
Atlantic City  PTSUNNY   51  32  48 S14G21    30.41S
Wrightstown    PTSUNNY   54  26  33 SW12      30.35F
Toms River     MOSUNNY   54  30  40 SW12G20   30.39F
Belmar         MOSUNNY   54  21  27 SW8G20    30.38F
$$

PAZ047>061-062-071-272000-
EASTERN PENNSYLVANIA

CITY           SKY/WX    TMP DP  RH WIND       PRES   REMARKS
Philadelphia   CLOUDY    54  27  35 SW14      30.39F
Allentown      CLOUDY    51  25  36 W13       30.35F
Scranton       CLOUDY    48  20  32 SW8       30.30F
$$

CTZ002-004>006-009-010-012-RIZ004-006-007-MAZ004-011-015-272000-
SOUTHERN NEW ENGLAND
 IN CT

CITY           SKY/WX    TMP DP  RH WIND       PRES   REMARKS
Bradley INTL   CLOUDY    53  15  22 SW17G31   30.30F
Hartford       CLOUDY    52  15  23 W14G26    30.32F
Danbury        MOSUNNY   50  20  30 W10G20    30.33F
Wtrbury/Oxford PTSUNNY   48  16  27 W12G25    30.33F
Bridgeport     SUNNY     49  30  48 SW12      30.36F
Meriden        MOSUNNY   53  22  29 S10       30.33F
New Haven      MOSUNNY   47  26  44 SW12G22   30.36F
Chester          N/A     48  19  32 SW10G17   30.34F
Groton         SUNNY     47  29  49 SW13      30.37S
Wilimantic     MOSUNNY   52  19  27 SW12G21   30.32F

 IN RI

CITY           SKY/WX    TMP DP  RH WIND       PRES   REMARKS
Providence     PTSUNNY   51  19  28 SW18G26   30.32F
Block Island   MOSUNNY   46  34  62 SW20G30   30.38F
Westerly       SUNNY     48  27  44 SW14      30.37F
 IN MA

CITY           SKY/WX    TMP DP  RH WIND       PRES   REMARKS
Boston         PTSUNNY   54  19  25 SW23G29   30.26F
Worcester      SUNNY     48  12  23 SW22G35   30.24F
Westfield      CLOUDY    53  16  23 W15G30    30.28F
Provincetown   MOSUNNY   45  32  60 SW21G28   30.30F
Nantucket      MOSUNNY   46  35  65 SW20      30.38F
$$

ANZ330-335-338-340-345-350-353-355-272000-
COASTAL MARINE OBSERVATIONS


STATION/POSITION TIME  SKY/WX   TEMP    WIND        PRES    VSBY  WAVE
                                AIR SEA DIR/SP/G                  HT/PER
                 (UTC)          (F)     (DEG/KT/KT) (MB)    (MI)  (FT/S)
NY HARB ENTRANCE NOT AVBL
20 S FIRE ISLAND 1850            44 43  210/ 17/ 19 1029.3          4/ 5
GREAT SOUTH BAY  NOT AVBL
23 SSW MONTAUK P 1750            44 45              1030.3          5/ 5
15 E BARNEGAT LI 1800               43                N/A           3/10
HUDSON CANYON    1750               47              1031.3          3/ 9
KINGS POINT      1830            48 40              1028.4
EXECUTION ROCKS  NOT AVBL
CENTRAL LI SOUND 1815            41     230/  4/  6   N/A           2/ 3
EASTERN LI SOUND NOT AVBL
ROBBINS REEF     1830            51     220/  7/ 10 1028.7
$$


>>>>>>>>>>>>>>>>>>>>>>>>>>>> KEY <<<<<<<<<<<<<<<<<<<<<<<<<<<
>                                                          <
>     SKY/WX - Sky Condition/Present Weather               <
>     TMP    - Temperature in Fahrenheit                   <
>     DP     - Dew Point in Fahrenheit                     <
>     RH     - Relative Humidity in Percent                <
>     WIND   - Direction (from) and Speed in MPH           <
>     PRES   - Mean Sea Level Pressure (inches of Hg)      <
>     WCI    - Wind Chill Index                            <
>     VSB    - VISIBILITY IN MILES                         <
>     HX     - HEAT INDEX                                  <
>     TC     - TEMPERATURE IN CELSIUS                      <
>     VRB    - VARIABLE WIND DIRECTION                     <
>                                                          <
>>>>>>>>>>>>>>>>>>>>>>>>>>>> KEY <<<<<<<<<<<<<<<<<<<<<<<<<<<



USA.gov is the U.S. government's official web portal to all federal, state and local government web resources and services.